Greeley, CO

11:37 AM MDT on July 22, 2017 (GMT -0600)
Greeley-Weld County

Weather History for KGXY - January, 2014

Change the Weather History Date:

Thursday, January 9, 2014

  Actual Average Record
Temperature  
Mean Temperature 20 °F -  
Max Temperature 35 °F - 65 °F (1990)
Min Temperature 5 °F - -10 °F (1974)
Degree Days  
Heating Degree Days 45    
Month to date heating degree days  
Cooling Degree Days 0    
Month to date cooling degree days  
Moisture  
Dew Point 12 °F    
Average Humidity 77    
Maximum Humidity 93    
Minimum Humidity 60    
Precipitation  
Precipitation 0.00 in - 0.03 in (1993)
Sea Level Pressure  
Sea Level Pressure 29.81 in    
Wind  
Wind Speed 3 mph (WNW)    
Max Wind Speed 18 mph    
Max Gust Speed 24 mph    
Visibility 6 miles    
Events      
T = Trace of Precipitation, MM = Missing Value Source: NWS Daily Summary

Daily Weather History Graph

Daily Weather History Graph

Search for Another Location

Airport or City:

Trip Planner

Search our weather history database for the weather conditions in past years. The results will help you decide how hot, cold, wet, or windy it might be!

Date:

Astronomy

Jan. 09, 2014 Rise Set
Actual Time 7:21 AM MST 4:50 PM MST
Civil Twilight 6:51 AM MST 5:20 PM MST
Nautical Twilight 6:17 AM MST 5:54 PM MST
Astronomical Twilight 5:44 AM MST 6:27 PM MST
Moon 12:19 PM MST (1/9) 1:31 AM MST (1/9)
Length of Visible Light 10h 29m
Length of Day
9h 28m
Waxing Gibbous, 66% of the Moon is Illuminated
Jan 9
Waxing Gibbous
Jan 15
Full
Jan 23
Last Quarter
Jan 30
New
Feb 6
First Quarter

Hourly Weather History & Observations

Time (MST) Temp. Windchill Dew Point Humidity Pressure Visibility Wind Dir Wind Speed Gust Speed Precip Events Conditions
12:15 AM 15.8 °F - 10.4 °F 79% 29.95 in 5.0 mi Calm Calm - N/A   Clear
12:35 AM 12.2 °F 6.1 °F 8.6 °F 85% 29.95 in 6.0 mi NW 3.5 mph - N/A   Clear
12:55 AM 12.2 °F 6.1 °F 8.6 °F 85% 29.94 in 7.0 mi NNW 3.5 mph - N/A   Clear
1:15 AM 12.2 °F 6.1 °F 6.8 °F 79% 29.93 in 9.0 mi North 3.5 mph - N/A   Clear
1:35 AM 12.2 °F - 6.8 °F 79% 29.94 in 10.0 mi Calm Calm - N/A   Clear
1:55 AM 10.4 °F - 6.8 °F 85% 29.93 in 10.0 mi Calm Calm - N/A   Clear
2:15 AM 10.4 °F - 5.0 °F 79% 29.93 in 9.0 mi Calm Calm - N/A   Clear
2:35 AM 8.6 °F - 3.2 °F 79% 29.93 in 9.0 mi Calm Calm - N/A   Clear
2:55 AM 10.4 °F - 3.2 °F 73% 29.92 in 8.0 mi Calm Calm - N/A   Clear
3:15 AM 10.4 °F 0.8 °F 3.2 °F 73% 29.92 in 5.0 mi NW 5.8 mph - N/A   Clear
3:35 AM 8.6 °F - 1.4 °F 73% 29.92 in 8.0 mi Calm Calm - N/A   Clear
3:55 AM 8.6 °F - 1.4 °F 73% 29.91 in 2.5 mi Calm Calm - N/A   Scattered Clouds
4:15 AM 8.6 °F - 1.4 °F 73% 29.91 in 0.2 mi Calm Calm - N/A   Overcast
4:35 AM 8.6 °F 0.1 °F 5.0 °F 85% 29.91 in 0.2 mi West 4.6 mph - N/A   Overcast
4:55 AM 8.6 °F - 1.4 °F 73% 29.89 in 0.2 mi Calm Calm - N/A   Overcast
5:15 AM 6.8 °F -0.1 °F -0.4 °F 72% 29.89 in 7.0 mi SW 3.5 mph - N/A   Mostly Cloudy
5:35 AM 8.6 °F 0.1 °F 3.2 °F 79% 29.88 in 0.8 mi SSW 4.6 mph - N/A   Mostly Cloudy
5:55 AM 8.6 °F - 1.4 °F 73% 29.87 in 5.0 mi Calm Calm - N/A   Partly Cloudy
6:15 AM 5.0 °F -5.6 °F -0.4 °F 78% 29.87 in 5.0 mi NNW 5.8 mph - N/A   Clear
6:35 AM 6.8 °F -5.9 °F -0.4 °F 72% 29.86 in 7.0 mi North 8.1 mph - N/A   Clear
6:55 AM 6.8 °F -4.8 °F 1.4 °F 79% 29.87 in 7.0 mi SSW 6.9 mph - N/A   Clear
7:15 AM 6.8 °F -0.1 °F 1.4 °F 79% 29.87 in 5.0 mi WNW 3.5 mph - N/A   Clear
7:35 AM 5.0 °F - -0.4 °F 78% 29.86 in 5.0 mi Calm Calm - N/A   Clear
7:55 AM 6.8 °F -0.1 °F 1.4 °F 79% 29.86 in 4.0 mi NW 3.5 mph - N/A   Clear
8:15 AM 6.8 °F -2.0 °F 1.4 °F 79% 29.86 in 2.0 mi NNW 4.6 mph - N/A   Scattered Clouds
8:35 AM 8.6 °F 2.0 °F 5.0 °F 85% 29.87 in 1.5 mi WNW 3.5 mph - N/A   Scattered Clouds
8:55 AM 12.2 °F - 8.6 °F 85% 29.87 in 1.0 mi Calm Calm - N/A   Overcast
9:15 AM 12.2 °F 4.3 °F 10.4 °F 92% 29.87 in 3.0 mi NW 4.6 mph - N/A   Partly Cloudy
9:35 AM 14.0 °F 6.5 °F 10.4 °F 86% 29.88 in 5.0 mi NW 4.6 mph - N/A   Clear
9:55 AM 15.8 °F - 10.4 °F 79% 29.87 in 7.0 mi Calm Calm - N/A   Clear
10:15 AM 21.2 °F 16.4 °F 17.6 °F 86% 29.86 in 8.0 mi SE 3.5 mph - N/A   Clear
10:35 AM 24.8 °F 19.1 °F 15.8 °F 69% 29.86 in 6.0 mi SE 4.6 mph - N/A   Clear
10:55 AM 24.8 °F - 17.6 °F 74% 29.85 in 7.0 mi Calm Calm - N/A   Clear
11:15 AM 24.8 °F - 17.6 °F 74% 29.83 in 7.0 mi Calm Calm - N/A   Clear
11:55 AM 30.2 °F - 19.4 °F 64% 29.80 in 7.0 mi Calm Calm - N/A   Clear
12:15 PM 28.4 °F 22.2 °F 19.4 °F 69% 29.80 in 7.0 mi WSW 5.8 mph - N/A   Clear
12:35 PM 30.2 °F 25.4 °F 21.2 °F 69% 29.79 in 8.0 mi WSW 4.6 mph - N/A   Clear
12:55 PM 35.6 °F - 24.8 °F 65% 29.77 in 8.0 mi Calm Calm - N/A   Clear
1:55 PM 33.8 °F - 23.0 °F 65% 29.74 in 10.0 mi Calm Calm - N/A   Clear
2:15 PM 35.6 °F 31.7 °F 24.8 °F 65% 29.73 in 9.0 mi SE 4.6 mph - N/A   Clear
2:35 PM 33.8 °F 30.8 °F 24.8 °F 70% 29.74 in 8.0 mi SSE 3.5 mph - N/A   Clear
2:55 PM 33.8 °F 30.8 °F 23.0 °F 65% 29.74 in 8.0 mi South 3.5 mph - N/A   Clear
3:15 PM 33.8 °F - 23.0 °F 65% 29.74 in 8.0 mi Calm Calm - N/A   Clear
4:15 PM 32.0 °F 28.7 °F 23.0 °F 69% 29.72 in 7.0 mi SSE 3.5 mph - N/A   Scattered Clouds
4:35 PM 30.2 °F 26.7 °F 24.8 °F 80% 29.73 in 5.0 mi West 3.5 mph - N/A   Clear
4:55 PM 28.4 °F 24.6 °F 21.2 °F 74% 29.73 in 5.0 mi SSW 3.5 mph - N/A   Clear
5:15 PM 26.6 °F - 17.6 °F 69% 29.73 in 6.0 mi Calm Calm - N/A   Clear
5:55 PM 23.0 °F - 15.8 °F 74% 29.73 in 5.0 mi Calm Calm - N/A   Clear
6:15 PM 21.2 °F - 15.8 °F 80% 29.73 in 5.0 mi Calm Calm - N/A   Clear
6:35 PM 19.4 °F - 14.0 °F 80% 29.73 in 4.0 mi Calm Calm - N/A   Clear
6:55 PM 19.4 °F 10.4 °F 15.8 °F 86% 29.72 in 4.0 mi NNE 6.9 mph - N/A   Clear
7:15 PM 19.4 °F 11.5 °F 17.6 °F 93% 29.71 in 5.0 mi NNW 5.8 mph - N/A   Clear
7:35 PM 19.4 °F 14.3 °F 12.2 °F 74% 29.71 in 4.0 mi WSW 3.5 mph - N/A   Clear
7:55 PM 19.4 °F - 15.8 °F 86% 29.71 in 3.0 mi Calm Calm - N/A   Clear
8:15 PM 19.4 °F - 15.8 °F 86% 29.70 in 4.0 mi Calm Calm - N/A   Scattered Clouds
8:35 PM 19.4 °F 11.5 °F 15.8 °F 86% 29.70 in 4.0 mi SW 5.8 mph - N/A   Mostly Cloudy
8:55 PM 19.4 °F - 15.8 °F 86% 29.70 in 4.0 mi Calm Calm - N/A   Mostly Cloudy
9:15 PM 19.4 °F - 15.8 °F 86% 29.69 in 4.0 mi Calm Calm - N/A   Mostly Cloudy
9:35 PM 21.2 °F - 15.8 °F 80% 29.69 in 4.0 mi Calm Calm - N/A   Mostly Cloudy
9:55 PM 21.2 °F 16.4 °F 15.8 °F 80% 29.68 in 5.0 mi NW 3.5 mph - N/A   Mostly Cloudy
10:15 PM 19.4 °F 14.3 °F 15.8 °F 86% 29.68 in 5.0 mi West 3.5 mph - N/A   Mostly Cloudy
10:35 PM 21.2 °F 12.6 °F 17.6 °F 86% 29.69 in 5.0 mi NW 6.9 mph - N/A   Mostly Cloudy
10:55 PM 24.8 °F 14.0 °F 19.4 °F 80% 29.70 in 7.0 mi NNW 11.5 mph - N/A   Overcast
11:15 PM 32.0 °F 20.8 °F 24.8 °F 75% 29.70 in 10.0 mi NNW 17.3 mph 24.2 mph N/A   Overcast
11:35 PM 33.8 °F 22.8 °F 24.8 °F 70% 29.69 in 10.0 mi North 18.4 mph - N/A   Overcast
11:55 PM 33.8 °F 23.9 °F 21.2 °F 60% 29.69 in 10.0 mi North 15.0 mph - N/A   Overcast